COSMOS 1823 DEB

Satellite information

Favourite Embed

Satellite Type and Status

DEBRISIN ORBIT

Key statistics

Satellite COSMOS 1823 DEB at a glance.

Uptime

13959

Days in orbit

Revolutions

≈ 12.5

Per day

Orbit

LEO

Low Earth Orbit

Inclination

73.7

Latest

Satellite identification and parameters

Extended collection of information and parameters for COSMOS 1823 DEB.

Object identification

Identified? True

Debris? True

Object name: COSMOS 1823 DEB

International designator: 1987-020ER

Object number (NORAD): 39817

Object ID (CCSDS): 39817

Country: COMMONWEALTH OF INDEPENDENT STATES (CIS)

Current information (Y/N): Y

RCS size: SMALL

Orbital parameters

Period: 115.021 minutes

Inclination: 73.7167 deg

SMA: 7834.489 km

Apoapsis: 1467.713 km

Periapsis: 1444.996 km

RAAN: 69.1805 deg

Eccentricy: 0.0014498

Argument of periapsis: 60.3616 deg

Mean anomaly: 123.5733 deg

Mean motion: 12.51949233 rev/day

Mean motion (dot): 0.00000325 rev/day2

B* drag term: 0.0021954 1/REarth

Two-line elements (TLE)

Creation date: May 7, 2025, 3:14 a.m.

Reference frame: TEME

Reference center: EARTH

Epoch: May 6, 2025, 2:33 p.m. UTC

TLE line 0: 0 COSMOS 1823 DEB

TLE line 1: 1 39817U 87020ER 25126.60633035 .00000325 00000-0 21954-2 0 9990

TLE line 2: 2 39817 73.7167 69.1805 0014498 60.3616 123.5733 12.51949233955561

Live tracking on map

Real-time ground track for satellite COSMOS 1823 DEB.

In-orbit conjunctions

A list of the most updated potential collisions computed for object COSMOS 1823 DEB.

Target Orbit TCA Probability of collision Miss distance Type
COSMOS 1257 LEO 2024-10-19 05:35:22 0.0001691142 647.0 (m) PAYLOAD

Associated space launch

A satellite for the GEO-IK geodetic system

COSMOS 1823 DEB was lifted into orbit during the mission ‘Tsiklon-3 | Geo-IK 9’, on board a Tsiklon-3 space rocket.

The launch took place on Feb. 20, 1987, 4:43 a.m. from 32/2.

For more information about the launch, click the button.

Launch to space Tsiklon-3 | Geo-IK 9
Tsiklon-3 | Geo-IK 9

Agency: N/A

Status: Launch Successful

Launch date: Feb. 20, 1987, 4:43 a.m. UTC

Rocket: Tsiklon-3

Launch pad: 32/2

Location: Plesetsk Cosmodrome, Russian Federation

...

Latest news about this satellite

There are no fresh news available about this satellite. Check back as we update our databases every day.


Newsletter sign-up

Weekly statistics, charts and insights to help you stay on top of the space industry.